Fort Rucker / Ozark, AL

1:22 PM CDT on April 23, 2017 (GMT -0500)
Fort Rucker / Ozark

Weather History for KHEY - April, 2014

Change the Weather History Date:

Wednesday, April 9, 2014

  Actual Average (KOZR) Record (KOZR)
Temperature  
Mean Temperature 60 °F -  
Max Temperature 71 °F 73 °F 89 °F (2011)
Min Temperature 46 °F 51 °F 39 °F (2007)
Degree Days  
Heating Degree Days 6    
Growing Degree Days 10 (Base 50)    
Moisture  
Dew Point 43 °F    
Average Humidity 66    
Maximum Humidity 93    
Minimum Humidity 24    
Precipitation  
Precipitation 0.00 in - - ()
Sea Level Pressure  
Sea Level Pressure 30.01 in    
Wind  
Wind Speed 6 mph (NW)    
Max Wind Speed 14 mph    
Max Gust Speed 26 mph    
Visibility 10 miles    
Events      
Averages and records for this station are not official NWS values.
T = Trace of Precipitation, MM = Missing Value Source: NWS Daily Summary

Daily Weather History Graph

Daily Weather History Graph

Search for Another Location

Airport or City:

Trip Planner

Search our weather history database for the weather conditions in past years. The results will help you decide how hot, cold, wet, or windy it might be!

Date:

Astronomy

Apr. 09, 2014 Rise Set
Actual Time 6:21 AM CDT 7:07 PM CDT
Civil Twilight 5:56 AM CDT 7:31 PM CDT
Nautical Twilight 5:27 AM CDT 8:01 PM CDT
Astronomical Twilight 4:58 AM CDT 8:30 PM CDT
Moon 2:13 PM CDT (4/9) 2:50 AM CDT (4/9)
Length of Visible Light 13h 35m
Length of Day
12h 45m
Waxing Gibbous, 72% of the Moon is Illuminated
Apr 9
Waxing Gibbous
Apr 15
Full
Apr 22
Last Quarter
Apr 29
New
May 6
First Quarter

Hourly Weather History & Observations

Time (CDT) Temp. Dew Point Humidity Pressure Visibility Wind Dir Wind Speed Gust Speed Precip Events Conditions
12:53 AM 50.0 °F 46.0 °F 86% 29.87 in 10.0 mi Variable 3.5 mph - N/A   Mostly Cloudy
1:53 AM 51.1 °F 46.9 °F 86% 29.87 in 10.0 mi West 4.6 mph - N/A   Overcast
2:53 AM 50.0 °F 46.9 °F 89% 29.88 in 10.0 mi WNW 4.6 mph - N/A   Overcast
3:53 AM 50.0 °F 46.9 °F 89% 29.89 in 10.0 mi NW 5.8 mph - N/A   Scattered Clouds
4:53 AM 48.9 °F 46.0 °F 90% 29.92 in 10.0 mi WNW 5.8 mph - N/A   Clear
5:53 AM 48.0 °F 46.0 °F 93% 29.94 in 10.0 mi Calm Calm - N/A   Clear
6:53 AM 48.0 °F 46.0 °F 93% 29.99 in 9.0 mi WNW 5.8 mph - N/A   Clear
7:43 AM 51.1 °F 46.9 °F 86% 30.05 in 10.0 mi NW 6.9 mph - N/A   Partly Cloudy
7:53 AM 52.0 °F 46.9 °F 83% 30.02 in 10.0 mi NW 6.9 mph - N/A   Partly Cloudy
8:27 AM 53.1 °F 46.9 °F 80% 30.08 in 10.0 mi NW 9.2 mph 18.4 mph N/A   Mostly Cloudy
8:53 AM 54.0 °F 46.9 °F 77% 30.06 in 10.0 mi WNW 9.2 mph - N/A   Mostly Cloudy
9:03 AM 55.0 °F 46.9 °F 74% 30.10 in 10.0 mi NW 11.5 mph - N/A   Mostly Cloudy
9:20 AM 57.0 °F 46.9 °F 69% 30.11 in 10.0 mi WNW 11.5 mph - N/A   Scattered Clouds
9:53 AM 57.9 °F 46.9 °F 67% 30.09 in 10.0 mi WNW 9.2 mph 17.3 mph N/A   Scattered Clouds
10:53 AM 62.1 °F 46.0 °F 56% 30.09 in 10.0 mi WNW 12.7 mph 18.4 mph N/A   Partly Cloudy
11:53 AM 64.9 °F 44.1 °F 47% 30.09 in 10.0 mi NW 10.4 mph 17.3 mph N/A   Partly Cloudy
12:53 PM 66.0 °F 42.1 °F 42% 30.08 in 10.0 mi NW 10.4 mph - N/A   Scattered Clouds
1:53 PM 70.0 °F 39.9 °F 33% 29.78 in 10.0 mi NW 13.8 mph 26.5 mph N/A   Partly Cloudy
2:53 PM 71.1 °F 37.0 °F 29% 29.76 in 10.0 mi North 10.4 mph 18.4 mph N/A   Partly Cloudy
3:53 PM 71.1 °F 36.0 °F 28% 29.76 in 10.0 mi North 12.7 mph - N/A   Clear
4:53 PM 71.1 °F 33.1 °F 25% 30.05 in 10.0 mi North 8.1 mph - N/A   Clear
5:53 PM 70.0 °F 30.9 °F 24% 30.05 in 10.0 mi NW 8.1 mph - N/A   Clear
6:53 PM 66.0 °F 36.0 °F 33% 30.07 in 10.0 mi NW 3.5 mph - N/A   Clear
7:53 PM 57.0 °F 41.0 °F 55% 30.09 in 10.0 mi NW 3.5 mph - N/A   Clear
8:53 PM 52.0 °F 43.0 °F 71% 30.12 in 10.0 mi WNW 4.6 mph - N/A   Clear
9:53 PM 51.1 °F 43.0 °F 74% 30.14 in 10.0 mi WNW 3.5 mph - N/A   Clear
10:53 PM 48.9 °F 43.0 °F 80% 30.15 in 10.0 mi Calm Calm - N/A   Clear
11:53 PM 46.9 °F 42.1 °F 83% 30.17 in 10.0 mi NNW 3.5 mph - N/A   Clear